Regional Weather Roundup
Issued by NWS

Home | Current Version | Previous Version | Graphics & Text | Print | Product List | Glossary Off
Versions: 1 2 3 4 5 6 7 8 9 10 11 12 13 14 15 16 17 18 19 20 21 22 23 24 25 26 27 28 29 30 31 32 33 34 35 36 37 38 39 40 41 42 43 44 45 46 47 48 49 50

000
ASUS43 KDMX 222007
RWRIA

WEATHER ROUNDUP FOR IOWA
NATIONAL WEATHER SERVICE DES MOINES IA
300 PM CDT FRI AUG 22 2014

NOTE: "FAIR" INDICATES FEW OR NO CLOUDS BELOW 12,000 FEET WITH NO
SIGNIFICANT WEATHER AND/OR OBSTRUCTIONS TO VISIBILITY.

* - THESE STATIONS ARE NOT NWS STATIONS...THUS NOT UNDER NWS
QUALITY CONTROL.  THEY ALSO DO NOT REPORT WEATHER SUCH
AS PRECIPITATION OR FOG.

IAZ001>003-012>014-020>022-031>034-043>046-222100-
   NORTHWEST IOWA

CITY           SKY/WX    TMP DP  RH WIND       PRES   REMARKS
CARROLL *      PTSUNNY   81  79  94 E8        29.93S HX  89
CHEROKEE *     MOSUNNY   82  75  78 NE7       29.95F HX  89
DENISON *      MOSUNNY   84  79  84 NE8       29.91F HX  96
LE MARS *      PTSUNNY   84  73  70 E8G15     29.96S HX  91
ORANGE CITY *  MOSUNNY   84  68  58 E8        29.97F HX  87
SHELDON *      MOSUNNY   81  73  78 VRB7G13   29.98S HX  85
SIOUX CITY     SUNNY     90  73  57 VRB5      29.93F HX  98
SPENCER        CLOUDY    79  72  79 E8        29.98F HX  82
STORM LAKE *   MOSUNNY   82  79  89 NE8       29.96F HX  93
$$

IAZ055>058-069>071-079>083-090>094-222100-
   SOUTHWEST IOWA

CITY           SKY/WX    TMP DP  RH WIND       PRES   REMARKS
ATLANTIC *     PTSUNNY   88  77  70 N7        29.90F HX 100
AUDUBON *      SUNNY     88  81  79 E3        29.94F HX 105
CLARINDA *     SUNNY     82  75  78 S13       29.96R HX  89
COUNCIL BLFS * MOSUNNY   88  79  74 NE7       29.89F HX 102
CRESTON *      PTSUNNY   84  77  79 SE7       29.94R HX  94
HARLAN  *      MOSUNNY   88  77  70 NE7       29.94F HX 100
LAMONI         CLOUDY    83  75  77 SE6       29.93F HX  90
RED OAK *      SUNNY     88  75  66 VRB5      29.91S HX  97
SHENANDOAH *   MOSUNNY   82  73  74 S14       29.94R HX  88
$$

IAZ047>049-059>061-072>074-084-222100-
   CENTRAL IOWA

CITY           SKY/WX    TMP DP  RH WIND       PRES   REMARKS
AMES           PTSUNNY   87  76  69 CALM      29.92S HX  97
ANKENY *       SUNNY     86  77  74 CALM      29.91F HX  97
CHARITON *     MOSUNNY   88  79  74 S7        29.92F HX 102
DES MOINES     CLOUDY    88  78  72 CALM      29.91F HX 101
GRINNELL*        N/A     74  70  87 SW5       29.95S
KNOXVILLE *    PTSUNNY   86  75  70 SE3       29.92R HX  95
MARSHALLTOWN   MOSUNNY   87  75  67 VRB3      29.93S HX  96
PELLA *        PTSUNNY   90  75  62 CALM      29.93S HX 100
PERRY *        CLOUDY    81  73  78 NE3       29.93S HX  85
$$

IAZ004>006-015-016-023>025-035-036-222100-
   NORTH CENTRAL IOWA

CITY           SKY/WX    TMP DP  RH WIND       PRES   REMARKS
ALGONA *       PTSUNNY   82  75  78 VRB6G13   29.97S HX  89
CLARION *      MOSUNNY   81  77  89 CALM      29.96R HX  88
ESTHERVILLE    SUNNY     82  71  69 NE6       29.97F HX  86
FORT DODGE *   PTSUNNY   84  75  74 NE9       29.95F HX  92
MASON CITY     CLOUDY    86  72  62 NE5       29.97F HX  92
FOREST CITY *  MOSUNNY   82  72  69 N5        29.96F HX  87
IOWA FALLS *     N/A     88  73  62 CALM      29.94F HX  96
$$

IAZ007>011-017>019-026>030-037>042-050>054-066-222100-
   NORTHEAST IOWA

CITY           SKY/WX    TMP DP  RH WIND       PRES   REMARKS
CEDAR RAPIDS   MOSUNNY   85  77  77 S8        29.92F HX  95
CHARLES CITY * PTSUNNY   81  75  83 VRB5      29.96S HX  86
CLINTON *      PTSUNNY   84  75  74 W7        29.96S HX  92
DECORAH *      PTSUNNY   84  77  79 VRB5      29.93F HX  94
DUBUQUE        PTSUNNY   84  77  79 SW5       29.93F HX  94
MONTICELLO *   PTSUNNY   88  79  74 SW9       29.91F HX 102
OELWEIN *      SUNNY     88  75  66 CALM      29.93F HX  97
WATERLOO       PTSUNNY   89  74  60 S7        29.90F HX  98
$$

IAZ064-065-067-068-078-222100-
   EAST CENTRAL IOWA

CITY           SKY/WX    TMP DP  RH WIND       PRES   REMARKS
DAVENPORT      MOSUNNY   85  71  63 SW12      29.93F HX  90
IOWA CITY      MOSUNNY   86  74  67 S7        29.93F HX  94
MT. PLEASANT * MOSUNNY   88  73  62 S8        29.93F HX  96
MUSCATINE *    SUNNY     88  75  66 S9        29.92S HX  97
QUAD CITIES    MOSUNNY   87  73  62 SW10      29.92F HX  94
$$

IAZ062-063-075>077-085>089-095>099-222100-
   SOUTHEAST IOWA

CITY           SKY/WX    TMP DP  RH WIND       PRES   REMARKS
BURLINGTON     MOSUNNY   86  76  71 S8        29.92F HX  96
FAIRFIELD *    MOSUNNY   86  77  74 SW5       29.94S HX  97
FORT MADISON * MOSUNNY   88  79  74 S6        29.94F HX 102
KEOKUK *       MOSUNNY   86  77  74 S9        29.92F HX  97
OSKALOOSA *      N/A     86  77  74 S3        29.94R HX  97
CENTERVILLE *  SUNNY     86  79  79 CALM      29.94F HX  99
OTTUMWA        PTSUNNY   85  77  77 SE3       29.93R HX  95
WASHINGTON *   SUNNY     86  77  74 S6        29.93F HX  97
$$

ABBREVIATIONS USED IN REMARKS
   TC - TEMPERATURES IN CELSIUS
  WCI - WIND CHILL INDEX
   HX - HEAT INDEX
  VSB - VISIBILITY
$$




USA.gov is the U.S. government's official web portal to all federal, state and local government web resources and services.